RYR35DA LFOB-EBCI

Flight info

Callsign RYR35DA
Flight time 0h 27m
Altitude 20000
Route NURMO UN874 CMB UZ373 ARVOL
Aircraft B738/M-SDE2E3FGHIRWXY/LB1

Departure

Time 2026-04-30 19:26
Airport Beauvais-Tillé airport (LFOB)

Arrival

Time 2026-04-30 19:54
Airport Brussels South Charleroi Airport (EBCI)
Time Latitude Longitude Altitude Speed Heading
2026-04-30 19:09 49.45823 2.11335 346 ft 0 kts 311°
2026-04-30 19:19 49.45821 2.11340 356 ft 2 kts 311°
2026-04-30 19:20 49.45809 2.11362 356 ft 3 kts 303°
2026-04-30 19:20 49.45799 2.11389 353 ft 3 kts 290°
2026-04-30 19:20 49.45799 2.11440 353 ft 2 kts 224°
2026-04-30 19:21 49.45800 2.11442 353 ft 2 kts 221°
2026-04-30 19:23 49.45751 2.11375 345 ft 11 kts 221°
2026-04-30 19:24 49.45713 2.11215 347 ft 9 kts 301°
2026-04-30 19:24 49.45760 2.11105 349 ft 13 kts 303°
2026-04-30 19:24 49.45732 2.10943 350 ft 11 kts 208°
2026-04-30 19:25 49.45530 2.11082 345 ft 37 kts 123°
2026-04-30 19:26 49.44594 2.13186 694 ft 169 kts 123°
2026-04-30 19:26 49.44007 2.16571 3131 ft 166 kts 77°
2026-04-30 19:26 49.44698 2.18052 4088 ft 178 kts 47°
2026-04-30 19:27 49.46868 2.20914 4707 ft 232 kts 43°
2026-04-30 19:27 49.49490 2.24482 5345 ft 271 kts 44°
2026-04-30 19:28 49.50901 2.26494 5986 ft 280 kts 45°
2026-04-30 19:28 49.53714 2.30633 7755 ft 282 kts 46°
2026-04-30 19:29 49.56543 2.34915 9429 ft 288 kts 47°
2026-04-30 19:29 49.57972 2.37103 10257 ft 291 kts 47°
2026-04-30 19:30 49.62687 2.44397 11084 ft 354 kts 47°
2026-04-30 19:30 49.66270 2.49960 12186 ft 371 kts 47°
2026-04-30 19:31 49.69926 2.55624 13716 ft 375 kts 47°
2026-04-30 19:31 49.71773 2.58483 14359 ft 378 kts 47°
2026-04-30 19:31 49.75530 2.64330 15589 ft 386 kts 47°
2026-04-30 19:32 49.77404 2.67258 16184 ft 390 kts 47°
2026-04-30 19:32 49.79322 2.70260 16797 ft 393 kts 47°
2026-04-30 19:32 49.81254 2.73290 17389 ft 397 kts 47°
2026-04-30 19:32 49.83271 2.76258 17975 ft 402 kts 40°
2026-04-30 19:33 49.85599 2.78717 18552 ft 408 kts 33°
2026-04-30 19:33 49.88049 2.80973 19062 ft 411 kts 33°
2026-04-30 19:33 49.90509 2.83263 19619 ft 413 kts 34°
2026-04-30 19:33 49.92956 2.85610 20129 ft 415 kts 34°
2026-04-30 19:34 49.95407 2.88029 20199 ft 422 kts 35°
2026-04-30 19:34 49.97877 2.90487 20214 ft 431 kts 35°
2026-04-30 19:34 50.02967 2.95533 20208 ft 433 kts 34°
2026-04-30 19:35 50.05507 2.98040 20210 ft 432 kts 34°
2026-04-30 19:35 50.08039 3.00540 20211 ft 431 kts 34°
2026-04-30 19:35 50.10571 3.03044 20213 ft 431 kts 35°
2026-04-30 19:35 50.13102 3.05552 20217 ft 432 kts 35°
2026-04-30 19:36 50.15642 3.08075 20219 ft 434 kts 34°
2026-04-30 19:36 50.18131 3.10707 20210 ft 431 kts 41°
2026-04-30 19:36 50.22020 3.17739 20233 ft 426 kts 58°
2026-04-30 19:37 50.23666 3.21596 20219 ft 426 kts 58°
2026-04-30 19:37 50.25305 3.25449 20220 ft 426 kts 58°
2026-04-30 19:37 50.26950 3.29305 20226 ft 426 kts 58°
2026-04-30 19:37 50.28592 3.33134 20213 ft 418 kts 58°
2026-04-30 19:38 50.30165 3.36785 20208 ft 402 kts 58°
2026-04-30 19:38 50.31713 3.40372 20123 ft 396 kts 58°
2026-04-30 19:38 50.33251 3.43939 19862 ft 394 kts 58°
2026-04-30 19:38 50.34778 3.47484 19627 ft 392 kts 58°
2026-04-30 19:39 50.36302 3.51028 19394 ft 391 kts 58°
2026-04-30 19:39 50.37818 3.54555 19126 ft 388 kts 58°
2026-04-30 19:39 50.39318 3.58047 18733 ft 383 kts 58°
2026-04-30 19:39 50.40801 3.61507 18224 ft 381 kts 58°
2026-04-30 19:40 50.42273 3.64944 17691 ft 378 kts 58°
2026-04-30 19:40 50.43733 3.68357 17183 ft 376 kts 58°
2026-04-30 19:40 50.45187 3.71762 16693 ft 373 kts 58°
2026-04-30 19:40 50.46628 3.75141 16192 ft 371 kts 58°
2026-04-30 19:41 50.48061 3.78505 15646 ft 372 kts 58°
2026-04-30 19:41 50.49498 3.81884 15033 ft 373 kts 58°
2026-04-30 19:41 50.50939 3.85279 14447 ft 373 kts 58°
2026-04-30 19:41 50.52380 3.88674 13838 ft 374 kts 58°
2026-04-30 19:42 50.53803 3.92031 13203 ft 373 kts 58°
2026-04-30 19:42 50.55242 3.95431 12537 ft 374 kts 58°
2026-04-30 19:42 50.56671 3.98811 11851 ft 367 kts 58°
2026-04-30 19:42 50.58067 4.02114 11187 ft 358 kts 58°
2026-04-30 19:43 50.59429 4.05343 10536 ft 351 kts 59°
2026-04-30 19:43 50.60763 4.08512 9871 ft 344 kts 59°
2026-04-30 19:43 50.62072 4.11624 9170 ft 338 kts 59°
2026-04-30 19:44 50.64582 4.17599 7848 ft 329 kts 59°
2026-04-30 19:44 50.65802 4.20627 7177 ft 323 kts 66°
2026-04-30 19:44 50.66394 4.23973 6502 ft 314 kts 89°
2026-04-30 19:44 50.66107 4.27315 5836 ft 306 kts 111°
2026-04-30 19:45 50.65116 4.30168 5400 ft 298 kts 128°
2026-04-30 19:45 50.63668 4.32408 4995 ft 287 kts 144°
2026-04-30 19:45 50.61950 4.33862 4678 ft 275 kts 155°
2026-04-30 19:45 50.60222 4.34961 4500 ft 260 kts 157°
2026-04-30 19:46 50.58576 4.35954 4296 ft 247 kts 157°
2026-04-30 19:46 50.57012 4.36902 4107 ft 235 kts 156°
2026-04-30 19:46 50.55516 4.37820 3927 ft 226 kts 156°
2026-04-30 19:46 50.54087 4.38705 3733 ft 215 kts 155°
2026-04-30 19:47 50.52712 4.39562 3565 ft 211 kts 155°
2026-04-30 19:47 50.51800 4.40083 3432 ft 212 kts 162°
2026-04-30 19:47 50.49811 4.39607 3203 ft 234 kts 205°
2026-04-30 19:47 50.48651 4.37722 3074 ft 251 kts 237°
2026-04-30 19:48 50.47984 4.35151 3066 ft 257 kts 245°
2026-04-30 19:48 50.47403 4.32482 3034 ft 259 kts 246°
2026-04-30 19:48 50.46832 4.29807 3005 ft 257 kts 246°
2026-04-30 19:48 50.46264 4.27151 2989 ft 256 kts 246°
2026-04-30 19:49 50.45600 4.24603 2978 ft 246 kts 229°
2026-04-30 19:49 50.42866 4.22573 2839 ft 218 kts 160°
2026-04-30 19:49 50.41693 4.23782 2710 ft 202 kts 122°
2026-04-30 19:50 50.41309 4.25856 2605 ft 194 kts 96°
2026-04-30 19:50 50.41333 4.27865 2533 ft 177 kts 92°
2026-04-30 19:50 50.41566 4.29653 2501 ft 159 kts 78°
2026-04-30 19:50 50.41942 4.31272 2376 ft 159 kts 74°
2026-04-30 19:51 50.42374 4.32823 2178 ft 149 kts 72°
2026-04-30 19:51 50.42775 4.34184 2154 ft 130 kts 72°
2026-04-30 19:51 50.43156 4.35476 1989 ft 131 kts 72°
2026-04-30 19:51 50.43526 4.36771 1778 ft 130 kts 75°
2026-04-30 19:52 50.43882 4.38078 1585 ft 130 kts 73°
2026-04-30 19:52 50.44125 4.38944 1458 ft 131 kts 71°
2026-04-30 19:52 50.44511 4.40271 1174 ft 136 kts 68°
2026-04-30 19:52 50.44924 4.41618 1003 ft 135 kts 70°
2026-04-30 19:53 50.45302 4.42943 849 ft 133 kts 68°
2026-04-30 19:53 50.45815 4.44694 630 ft 128 kts 68°
2026-04-30 19:53 50.46138 4.45810 624 ft 92 kts 65°
2026-04-30 19:53 50.46350 4.46541 614 ft 59 kts 65°
2026-04-30 19:54 50.46428 4.46811 623 ft 16 kts 65°
2026-04-30 19:54 50.46496 4.46891 615 ft 11 kts
2026-04-30 19:54 50.46550 4.46866 612 ft 6 kts 334°
2026-04-30 19:54 50.46585 4.46840 625 ft 6 kts 335°
2026-04-30 19:55 50.46620 4.46815 619 ft 6 kts 335°
2026-04-30 19:55 50.46671 4.46778 623 ft 9 kts 336°
2026-04-30 19:55 50.46723 4.46804 620 ft 9 kts 58°
2026-04-30 19:55 50.46751 4.46895 620 ft 10 kts 65°
2026-04-30 19:56 50.46773 4.46957 612 ft 4 kts 38°
2026-04-30 19:56 50.46796 4.46949 623 ft 3 kts 333°
2026-04-30 19:56 50.46817 4.46933 622 ft 2 kts 335°
2026-04-30 19:56 50.46823 4.46930 619 ft 0 kts 335°
2026-04-30 20:06 50.46822 4.46930 612 ft 0 kts 335°